Regional Weather Roundup
Issued by NWS

Home | Current Version | Previous Version | Graphics & Text | Print | Product List | Glossary On
Versions: 1 2 3 4 5 6 7 8 9 10 11 12 13 14 15 16 17 18 19 20 21 22 23 24 25 26 27 28 29 30 31 32 33 34 35 36 37 38 39 40 41 42 43 44 45 46 47 48 49 50
000
ASUS43 KLMK 290302
RWRKY
KENTUCKY REGIONAL WEATHER ROUNDUP
NATIONAL WEATHER SERVICE LOUISVILLE KY
1000 PM EST WED JAN 28 2015

NOTE "FAIR" INDICATES FEW OR NO CLOUDS BELOW 12,000 FEET
WITH NO SIGNIFICANT WEATHER AND/OR OBSTRUCTIONS TO VISIBILITY.

KYZ001>023-026-027-061>063-070>075-290400-
WESTERN AND SOUTH CENTRAL KENTUCKY

CITY           SKY/WX    TMP DP  RH WIND       PRES   REMARKS
PADUCAH        MOCLDY    44  29  55 SE13      30.03F
HENDERSON      PTCLDY    39  23  52 SE12      30.08F WCI  32
OWENSBORO      PTCLDY    38  24  57 S8        30.12R WCI  32
HOPKINSVILLE   PTCLDY    44  26  48 SE8       30.11R
BOWLING GREEN  PTCLDY    35  22  58 E3        30.13F
GLASGOW        NOT AVBL
$$

KYZ024-025-028>034-038-045-046-053-290400-
NORTH CENTRAL KENTUCKY

CITY           SKY/WX    TMP DP  RH WIND       PRES   REMARKS
LOUISVILLE/SDF PTCLDY    34  18  52 SE7       30.14F WCI  28
LOUISVILLE/LOU PTCLDY    35  17  47 SE7       30.15F WCI  29
FORT KNOX      PTCLDY    34  16  47 E7        30.11F WCI  28
$$

KYZ035>037-039>044-047>052-055>060-089>105-290400-
NORTHEAST KENTUCKY

CITY           SKY/WX    TMP DP  RH WIND       PRES   REMARKS
LEXINGTON      CLEAR     31  19  61 SE8       30.19F WCI  23
COVINGTON      MOCLDY    32  19  58 SE13      30.17F WCI  22
FRANKFORT      CLEAR     30  19  63 SE8       30.16F WCI  22
$$

KYZ054-064>069-076>088-106>120-290400-
SOUTHEAST KENTUCKY

CITY           SKY/WX    TMP DP  RH WIND       PRES   REMARKS
JACKSON        CLEAR     30  18  60 E5        30.21F WCI  25
LONDON         FAIR      28  20  71 CALM      30.21F
SOMERSET       NOT AVBL
MIDDLESBORO    CLEAR     27  24  88 CALM      30.26F
MONTICELLO     CLEAR     35  17  48 S6        30.22F WCI  30
$$



USA.gov is the U.S. government's official web portal to all federal, state and local government web resources and services.